STARLINK-30248, 57610

Orbit data source: Space-Track

STARLINK-30248, 57610 is a payload satellite owned by SpaceX/Seattle (US) in LEO that was launched on Fri, 11 Aug 2023 UTC via an FALCON 9 launch vehicle from the Air Force Eastern Test Range (AFETR). Payload-class satellites include a variety of spacecraft equipped with specific instruments for various scientific and technological missions. These include communications satellites like Starlink; space stations such as the ISS; scientific satellites like the Hubble; Earth observation satellites from companies like Planet Labs, Umbra, and HawkEye 360; GPS; miniature CubeSats for education and research; and military/defense satellites.

Loading next visibility...
Identifier
57610, 2023-119J
Orbit
LEO
Country
Flag of USUS
Related business
Manufacturer
SpaceX/Seattle
Mission
Operational Commercial Communications
Bus & Motor
STARLINK V2M, Unknown motor
Mass
730 kg wet, ~700 kg dry
Launch date (UTC)
2023-08-11 (3 years ago)
Launch vehicle
FALCON 9
Launch site
Air Force Eastern Test Range (AFETR)
Object type
Payload
Rocket body
Debris
Shape & HBR
Box + 2 Pan, 17.7 m
Radar Cross Section
33.884 m², Large (>1 m²)

Expand to show TLE details & history
Last TLE update: 2 days ago

TLE from 2 days ago
0 STARLINK-30248
1 57610U 23119J   26171.16887436 -.00000874  00000-0 -22231-4 0  9990
2 57610  42.9985 222.4502 0001460 267.5876  92.4808 15.27576761158762
Epoch: 2026-06-20T04:03Z
TLE epoch observation values (Epoch: 2026-06-20T04:03:10.744Z)
Latitude
-0.00006°
Longitude
-106.73199°
Altitude
482.878 km
Speed
7.626 km/s
True Right ascension
14h 49m 48s
True Declination
0° 00' 00"
Sunlit
Object was in full shadow at epoch
Visualization orbit readout
Latitude
Unknown
Longitude
Unknown
Altitude
Unknown
Speed
Unknown
Apparent Right ascension
Unknown
Apparent Declination
Unknown
Sunlit
N/A
Visualization observer readout
Local Sidereal Time
00:51:17
Azimuth
Unknown
Elevation
Unknown
Doppler factor
Unknown
Orbital elements
Apogee altitude
486.006 km
Perigee altitude
484.002 km
Semi-major axis
6,863.141 km
Eccentricity
0.00015
Inclination
42.9985°
RAAN
222.4502°
Arg. of periapsis
267.5876°
True anomaly
92.49751°
Mean anomaly
92.4808°
Eccentric anomaly
92.48916°
Mean motion
3.81732 °/min
Orbital period
94.31 mins
BSTAR
-0.000022231
Loading maneuver chart data...
Computing Atmospheric mass density...
Loading historical data...
Loading historical data...
Loading historical data...
Loading historical data...
Loading historical data...
Loading historical data...
Loading historical data...

Documentation

Showing up to 5 results
|